DAL52 KDAL-KORD

Flight info

Callsign DAL52
Flight time N/A
Altitude 37000
Route SWTSR7 MLC SGF WELTS TRTLL6
Aircraft A320/M-VGDW/C

Departure

Time N/A
Airport Dallas Love Field (KDAL)

Arrival

Time 2026-05-03 20:41
Airport Chicago O'Hare International Airport (KORD)
Time Latitude Longitude Altitude Speed Heading
2026-05-03 20:15 40.73488 -89.37715 32355 ft 442 kts 30°
2026-05-03 20:15 40.75747 -89.35072 31730 ft 426 kts 30°
2026-05-03 20:15 40.77896 -89.32505 31172 ft 417 kts 31°
2026-05-03 20:15 40.80022 -89.29950 30619 ft 411 kts 31°
2026-05-03 20:16 40.82133 -89.27416 30070 ft 406 kts 31°
2026-05-03 20:16 40.84213 -89.24927 29458 ft 402 kts 31°
2026-05-03 20:16 40.86285 -89.22447 28862 ft 400 kts 31°
2026-05-03 20:16 40.88341 -89.19990 28251 ft 397 kts 31°
2026-05-03 20:17 40.90385 -89.17551 27656 ft 394 kts 31°
2026-05-03 20:17 40.92419 -89.15123 27104 ft 392 kts 31°
2026-05-03 20:17 40.93751 -89.13528 26715 ft 390 kts 31°
2026-05-03 20:17 40.96342 -89.10418 25983 ft 386 kts 32°
2026-05-03 20:18 40.98316 -89.08042 25311 ft 382 kts 32°
2026-05-03 20:18 41.00277 -89.05688 24644 ft 379 kts 32°
2026-05-03 20:18 41.02213 -89.03364 24002 ft 375 kts 32°
2026-05-03 20:18 41.04142 -89.01048 23349 ft 372 kts 32°
2026-05-03 20:19 41.06019 -88.98793 22619 ft 368 kts 33°
2026-05-03 20:19 41.07897 -88.96535 21895 ft 364 kts 33°
2026-05-03 20:19 41.09763 -88.94284 21194 ft 361 kts 33°
2026-05-03 20:19 41.11601 -88.92063 20273 ft 358 kts 33°
2026-05-03 20:20 41.13442 -88.89834 19400 ft 355 kts 34°
2026-05-03 20:20 41.15258 -88.87634 18519 ft 352 kts 34°
2026-05-03 20:20 41.17061 -88.85455 17596 ft 349 kts 34°
2026-05-03 20:20 41.18850 -88.83287 16378 ft 349 kts 35°
2026-05-03 20:21 41.20700 -88.81061 14996 ft 362 kts 35°
2026-05-03 20:21 41.22505 -88.78870 14669 ft 339 kts 35°
2026-05-03 20:21 41.23638 -88.77484 14493 ft 331 kts 35°
2026-05-03 20:21 41.25861 -88.74777 14040 ft 326 kts 35°
2026-05-03 20:22 41.27531 -88.72750 13646 ft 324 kts 35°
2026-05-03 20:22 41.29173 -88.70754 13226 ft 322 kts 35°
2026-05-03 20:22 41.30288 -88.69396 12939 ft 321 kts 35°
2026-05-03 20:22 41.32457 -88.66757 12394 ft 318 kts 36°
2026-05-03 20:23 41.33558 -88.65417 12103 ft 316 kts 36°
2026-05-03 20:23 41.35178 -88.63441 11702 ft 314 kts 36°
2026-05-03 20:23 41.36775 -88.61491 11305 ft 311 kts 37°
2026-05-03 20:23 41.38353 -88.59580 10915 ft 309 kts 36°
2026-05-03 20:24 41.39941 -88.57690 10622 ft 304 kts 36°
2026-05-03 20:24 41.41526 -88.55823 10423 ft 303 kts 36°
2026-05-03 20:24 41.43106 -88.53963 10230 ft 302 kts 36°
2026-05-03 20:24 41.44681 -88.52106 10032 ft 302 kts 36°
2026-05-03 20:25 41.46231 -88.50274 9847 ft 301 kts 36°
2026-05-03 20:25 41.47794 -88.48419 9638 ft 300 kts 36°
2026-05-03 20:25 41.49349 -88.46569 9439 ft 300 kts 37°
2026-05-03 20:25 41.50914 -88.44706 9215 ft 303 kts 37°
2026-05-03 20:26 41.52491 -88.42826 9066 ft 303 kts 37°
2026-05-03 20:26 41.54058 -88.40952 9020 ft 304 kts 37°
2026-05-03 20:26 41.55637 -88.39065 9036 ft 304 kts 37°
2026-05-03 20:26 41.57216 -88.37178 9026 ft 304 kts 37°
2026-05-03 20:27 41.58818 -88.35261 9027 ft 304 kts 37°
2026-05-03 20:27 41.60366 -88.33405 9035 ft 304 kts 37°
2026-05-03 20:27 41.63394 -88.29768 8944 ft 298 kts 35°
2026-05-03 20:27 41.66925 -88.25768 9041 ft 298 kts 30°
2026-05-03 20:28 41.68623 -88.23987 9029 ft 333 kts 36°
2026-05-03 20:28 41.70383 -88.21907 9027 ft 364 kts 38°
2026-05-03 20:28 41.72252 -88.19569 9014 ft 370 kts 40°
2026-05-03 20:28 41.74123 -88.17192 9014 ft 372 kts 39°
2026-05-03 20:29 41.76008 -88.14826 9017 ft 371 kts 39°
2026-05-03 20:29 41.77874 -88.12528 9010 ft 371 kts 38°
2026-05-03 20:29 41.79791 -88.10209 9035 ft 370 kts 38°
2026-05-03 20:29 41.81741 -88.07834 9013 ft 393 kts 39°
2026-05-03 20:30 41.83736 -88.05290 9015 ft 404 kts 41°
2026-05-03 20:30 41.85728 -88.02646 9005 ft 406 kts 41°
2026-05-03 20:30 41.87520 -87.99765 9003 ft 411 kts 57°
2026-05-03 20:30 41.88455 -87.96100 9006 ft 417 kts 81°
2026-05-03 20:31 41.88616 -87.92287 9003 ft 390 kts 88°
2026-05-03 20:31 41.88623 -87.88888 9003 ft 343 kts 91°
2026-05-03 20:31 41.88574 -87.85849 9006 ft 323 kts 91°
2026-05-03 20:31 41.88514 -87.82837 9011 ft 318 kts 91°
2026-05-03 20:32 41.88463 -87.79872 9020 ft 317 kts 91°
2026-05-03 20:32 41.88433 -87.76927 8906 ft 314 kts 90°
2026-05-03 20:32 41.88416 -87.74002 8419 ft 313 kts 91°
2026-05-03 20:32 41.88410 -87.71118 8164 ft 303 kts 91°
2026-05-03 20:33 41.88410 -87.68355 8042 ft 290 kts 91°
2026-05-03 20:33 41.88544 -87.65717 7782 ft 284 kts 76°
2026-05-03 20:33 41.89324 -87.63328 7411 ft 278 kts 50°
2026-05-03 20:33 41.90550 -87.61579 7040 ft 273 kts 38°
2026-05-03 20:34 41.91961 -87.59803 6604 ft 274 kts 38°
2026-05-03 20:34 41.93355 -87.58098 6208 ft 272 kts 31°
2026-05-03 20:34 41.94992 -87.57131 6015 ft 238 kts 358°
2026-05-03 20:34 41.96483 -87.57197 5911 ft 201 kts 334°
2026-05-03 20:35 41.97672 -87.57912 5514 ft 177 kts 310°
2026-05-03 20:35 41.98451 -87.59095 4988 ft 164 kts 287°
2026-05-03 20:35 41.98784 -87.60505 4453 ft 155 kts 266°
2026-05-03 20:35 41.98800 -87.61945 3898 ft 155 kts 262°
2026-05-03 20:36 41.98796 -87.63432 3356 ft 162 kts 261°
2026-05-03 20:36 41.98794 -87.65024 2612 ft 179 kts 262°
2026-05-03 20:36 41.98798 -87.66716 2296 ft 185 kts 262°
2026-05-03 20:36 41.98803 -87.68442 2227 ft 188 kts 262°
2026-05-03 20:37 41.98810 -87.70153 2225 ft 176 kts 262°
2026-05-03 20:37 41.98814 -87.71751 2217 ft 169 kts 262°
2026-05-03 20:37 41.98816 -87.73308 2210 ft 164 kts 262°
2026-05-03 20:37 41.98819 -87.74804 2205 ft 158 kts 262°
2026-05-03 20:38 41.98820 -87.76267 2198 ft 156 kts 262°
2026-05-03 20:38 41.98822 -87.77724 2195 ft 155 kts 262°
2026-05-03 20:38 41.98823 -87.79178 2100 ft 156 kts 262°
2026-05-03 20:38 41.98824 -87.80633 1930 ft 156 kts 262°
2026-05-03 20:39 41.98825 -87.82073 1738 ft 155 kts 262°
2026-05-03 20:39 41.98826 -87.83520 1512 ft 158 kts 263°
2026-05-03 20:39 41.98827 -87.85031 1294 ft 163 kts 261°
2026-05-03 20:39 41.98830 -87.86543 1057 ft 153 kts 261°
2026-05-03 20:40 41.98838 -87.87873 838 ft 136 kts 258°
2026-05-03 20:40 41.98837 -87.89089 691 ft 123 kts 259°
2026-05-03 20:40 41.98829 -87.90086 667 ft 81 kts 269°
2026-05-03 20:40 41.98827 -87.90680 673 ft 54 kts 269°
2026-05-03 20:41 41.98832 -87.91180 669 ft 53 kts 268°
2026-05-03 20:41 41.98766 -87.91538 668 ft 24 kts 224°